sat.trackr.live / text

‹ back to catalog

ONEWEB-0281

NORAD 48999 · 2021-060AJ

PAYLOAD ACTIVE UNKNOWN

§ Identity

Operator
Country
UK
Launch date
2021-07-01
Launch site
VOSTO
Launch vehicle
Mass (kg)
RCS (m²)

Purposes: comms

External: N2YO · Heavens-Above · Gunter

§ Orbital elements

Epoch: 2026-09-20T03:19:30.581760Z

Period
109.37 min
Inclination
87.9156°
Eccentricity
0.0002100
Mean motion
13.16593058 rev/d
Perigee alt
1,196.2 km
Apogee alt
1,199.4 km
Semi-major
7,575.9 km
B*
-3.5870e-5
RAAN
209.9227°
Arg perigee
79.0576°
Mean anomaly
281.0791°
Rev number
25,212

§ Raw data

ONEWEB-02811 48999U 21060AJ  26263.13854840 -.00000001  00000+0 -35870-4 0  99992 48999  87.9156 209.9227 0002100  79.0576 281.0791 13.16593058252126

JSON: /api/v1/satellites/48999 · /tle

For live sub-satellite position, see the globe view (requires WebGL).

§ Visibility from observer

Set your observer location to see the next 7 days of passes ≥ 10°. The values pass through the URL so the page stays shareable.

No JS? Fill the form by hand. The geolocation button needs JavaScript.